Flight Track Log - Related Links

Times and Time Zones

All times are in EDT time to prevent confusion due to time zone crossing. See the EJA396 flight status page for this flight to view local times or setup timezone preferences in your user account.

Time Position Orientation Groundspeed Altitude Reporting Facility
EDT Latitude Longitude Course Direction KTS MPH feet Rate Location/Type
14:08 33.8475 -116.5239 324° Northwest 172 198 38,000  Level Los Angeles Center
14:09 33.8931 -116.5636 324° Northwest 218 251 7,000 -12,968 Descending Los Angeles Center
14:10 33.9603 -116.5636 360° North 279 321 11,200 3,774 Climbing Los Angeles Center
14:11 34.0406 -116.5400 14° North 288 331 14,800 3,387 Climbing Los Angeles Center
14:12 34.1344 -116.5342 North 331 381 18,200 2,613 Climbing Los Angeles Center
14:13 34.2336 -116.5708 343° North 369 425 20,200 1,935 Climbing Los Angeles Center
14:14 34.3403 -116.6136 342° North 398 458 22,200 1,344 Climbing Los Angeles Center
14:15 34.4497 -116.6669 338° Northwest 423 487 23,000 720 Climbing Los Angeles Center
14:16 34.5158 -116.8078 300° West 397 457 23,700 1,161 Climbing Los Angeles Center
14:17 34.5275 -116.9397 276° West 395 455 25,400 1,597 Climbing Los Angeles Center
14:18 34.5589 -117.0664 287° West 396 456 27,000 1,403 Climbing Los Angeles Center
14:19 34.6489 -117.1422 325° Northwest 402 463 28,300 1,161 Climbing Los Angeles Center
14:20 34.7631 -117.1894 341° North 427 491 29,400 1,113 Climbing Los Angeles Center
14:21 34.9072 -117.2486 341° North 452 520 30,600 1,065 Climbing Los Angeles Center
14:22 35.0311 -117.3000 341° North 469 540 31,600 1,016 Climbing Los Angeles Center
14:23 35.1553 -117.3519 341° North 478 550 32,700 1,065 Climbing Los Angeles Center
14:24 35.2789 -117.4025 342° North 478 550 33,800 1,210 Climbing Los Angeles Center
14:25 35.4258 -117.4653 341° North 473 544 35,200 1,296 Climbing Los Angeles Center
14:26 35.5469 -117.5178 341° North 468 539 36,500 1,248 Climbing Los Angeles Center
14:27 35.6664 -117.5686 341° North 460 529 37,800 726 Climbing Los Angeles Center
14:28 35.7844 -117.6189 341° North 453 521 38,000 97 Climbing Los Angeles Center
14:29 35.9064 -117.6711 341° North 461 531 38,000  Level Los Angeles Center
14:31 36.0283 -117.7261 340° North 466 536 38,000  Level Los Angeles Center
14:32 36.1981 -117.7981 341° North 463 533 38,000  Level Los Angeles Center
14:33 36.3206 -117.8517 341° North 465 535 38,000  Level Los Angeles Center
14:34 36.4178 -117.8944 341° North 464 534 38,000  Level Los Angeles Center
14:35 36.5650 -117.9589 341° North 467 537 38,000  Level Los Angeles Center
14:36 36.6878 -118.0122 341° North 467 537 38,000  Level Los Angeles Center
14:37 36.7981 -118.0594 341° North 468 539 38,000  Level Los Angeles Center
14:38 36.9464 -118.1256 340° North 471 542 38,000  Level Los Angeles Center
14:39 37.0953 -118.1914 341° North 472 543 38,000  Level Los Angeles Center
14:40 37.2186 -118.2453 341° North 469 540 38,000  Level Los Angeles Center
14:41 37.3403 -118.2978 341° North 469 540 38,000  Level Oakland Center
14:42 37.4636 -118.3522 341° North 469 540 38,000  Level Oakland Center
14:43 37.6136 -118.4203 340° North 473 544 38,000  Level Oakland Center
14:44 37.7378 -118.4756 341° North 473 544 38,000  Level Oakland Center
14:45 37.8614 -118.5314 340° North 471 542 38,000  Level Oakland Center
14:46 37.9864 -118.5883 340° North 474 545 38,000  Level Oakland Center
14:47 38.1094 -118.6442 340° North 470 541 38,000  Level Oakland Center
14:48 38.2458 -118.7056 341° North 475 547 38,000  Level Oakland Center
14:49 38.3703 -118.7636 340° North 474 545 38,000  Level Oakland Center
14:50 38.4944 -118.8189 341° North 473 544 38,000  Level Oakland Center
14:51 38.6186 -118.8783 339° North 475 547 38,000  Level Oakland Center
14:52 38.7444 -118.9364 340° North 477 549 38,000  Level Oakland Center
14:53 38.8694 -118.9942 340° North 476 548 38,000  Level Oakland Center
14:54 38.9942 -119.0519 340° North 474 545 38,000  Level Oakland Center
14:55 39.1178 -119.1108 340° North 470 541 38,000  Level Oakland Center
14:56 39.2417 -119.1697 340° North 471 542 38,000  Level Oakland Center
14:57 39.3653 -119.2283 340° North 468 539 38,000  Level Oakland Center
14:59 39.4875 -119.2856 340° North 465 535 38,000  Level Oakland Center
15:00 39.6100 -119.3439 340° North 464 534 38,000  Level Oakland Center
15:01 39.7333 -119.4044 339° North 469 540 38,000  Level Oakland Center
15:02 39.8822 -119.4750 340° North 472 543 38,000  Level Oakland Center
15:03 40.0056 -119.5344 340° North 471 542 38,000  Level Oakland Center
15:04 40.1281 -119.5947 339° North 470 541 38,000  Level Oakland Center
15:05 40.2514 -119.6542 340° North 471 542 38,000  Level Oakland Center
15:06 40.3769 -119.7139 340° North 480 552 38,000  Level Oakland Center
15:07 40.4989 -119.7750 339° North 471 542 38,000  Level Oakland Center
15:08 40.6122 -119.8344 338° Northwest 467 537 38,000  Level Oakland Center
15:09 40.7364 -119.8958 339° North 474 545 38,000  Level Oakland Center
15:10 40.8847 -119.9678 340° North 474 545 38,000  Level Oakland Center
15:11 41.0069 -120.0300 339° North 473 544 38,000  Level Oakland Center
15:12 41.1300 -120.0897 340° North 470 541 38,000  Level Seattle Center
15:13 41.2511 -120.1511 339° North 468 539 38,000  Level Seattle Center
15:14 41.3725 -120.2119 339° North 469 540 38,000  Level Seattle Center
15:15 41.4953 -120.2736 339° North 472 543 38,000  Level Seattle Center
15:16 41.6428 -120.3489 339° North 474 545 38,000  Level Seattle Center
15:17 41.7664 -120.4114 339° North 476 548 38,000  Level Seattle Center
15:18 41.8886 -120.4744 339° North 472 543 38,000  Level Seattle Center
15:19 42.0111 -120.5375 339° North 474 545 38,000  Level Seattle Center
15:20 42.1325 -120.5983 340° North 466 536 38,000  Level Seattle Center
15:21 42.2531 -120.6619 339° North 465 535 38,000  Level Seattle Center
15:22 42.3731 -120.7231 339° North 462 532 38,000  Level Seattle Center
15:23 42.4933 -120.7867 339° North 463 533 38,000  Level Seattle Center
15:24 42.6125 -120.8489 339° North 461 531 38,000  Level Seattle Center
15:25 42.7300 -120.9108 339° North 455 524 38,000  Level Seattle Center
15:26 42.8703 -120.9833 339° North 453 521 38,000  Level Seattle Center
15:27 42.9867 -121.0450 339° North 453 521 38,000  Level Seattle Center
15:28 43.1033 -121.1086 338° Northwest 453 521 38,000  Level Seattle Center
15:29 43.2206 -121.1736 338° Northwest 454 522 38,000  Level Seattle Center
15:31 43.3698 -121.2494 340° North  Level FlightAware Approximate
15:31 43.4500 -121.2922 340° North 444 511 38,000  Level Seattle Center
15:32 43.5675 -121.3583 338° Northwest 450 518 38,000  Level Seattle Center
15:33 43.6828 -121.4239 338° Northwest 451 519 38,000  Level Seattle Center
15:34 43.7981 -121.4867 339° North 448 516 38,000  Level Seattle Center
15:35 43.9242 -121.5536 339° North 446 513 38,000  Level Seattle Center
15:36 44.0392 -121.6156 339° North 442 509 38,000  Level Seattle Center
15:37 44.1536 -121.6800 338° Northwest 443 510 38,000  Level Seattle Center
15:38 44.2675 -121.7431 338° Northwest 440 506 38,000  Level Seattle Center
15:39 44.3817 -121.8064 338° Northwest 439 505 38,000  Level Seattle Center
15:40 44.4936 -121.8686 338° Northwest 434 499 38,000  Level Seattle Center
15:41 44.6036 -121.9311 338° Northwest 430 495 38,000  Level Seattle Center
15:42 44.7342 -122.0050 338° Northwest 425 489 38,000 -689 Level Seattle Center
15:43 44.8411 -122.0650 338° Northwest 419 482 36,600 -984 Descending Seattle Center
15:44 44.9578 -122.1336 337° Northwest 437 503 36,000 -295 Descending Seattle Center
15:45 45.0686 -122.1978 338° Northwest 434 499 36,000 -246 Level Seattle Center
15:46 45.1839 -122.2628 338° Northwest 445 512 35,500 -787 Descending Seattle Center
15:47 45.2944 -122.3264 338° Northwest 438 504 34,400 -1,279 Descending Seattle Center
15:48 45.4061 -122.3914 338° Northwest 435 501 32,900 -1,475 Descending Seattle Center
15:50 45.5172 -122.4564 338° Northwest 436 502 31,400 -1,475 Descending Seattle Center
15:51 45.6300 -122.5211 338° Northwest 439 505 29,900 -1,525 Descending Seattle Center
15:52 45.7417 -122.5856 338° Northwest 437 503 28,300 -1,672 Descending Seattle Center
15:53 45.8556 -122.6153 350° North 426 490 26,500 -1,721 Descending Seattle Center
15:54 45.9708 -122.6461 349° North 423 487 24,800 -1,672 Descending Seattle Center
15:55 46.1053 -122.6836 349° North 416 479 23,100 -1,475 Descending Seattle Center
15:56 46.2056 -122.7072 351° North 400 460 21,800 -1,279 Descending Seattle Center
15:57 46.3131 -122.7364 349° North 395 455 20,500 -1,339 Descending Seattle Center
15:58 46.4181 -122.7628 350° North 390 449 19,100 -1,339 Descending Seattle Center
15:59 46.5225 -122.7786 354° North 385 443 17,800 -1,328 Descending Seattle Center
16:00 46.6206 -122.7475 12° North 363 418 16,400 -1,525 Descending Seattle Center
16:01 46.7386 -122.7161 10° North 352 405 14,700 -1,525 Descending Seattle Center
16:02 46.8350 -122.6892 11° North 353 406 13,300 -1,367 Descending Seattle Center
16:02 46.8653 -122.6825 North 354 407 12,900 -1,377 Descending Seattle Center
16:03 46.9322 -122.6622 12° North 355 409 11,900 -1,364 Descending Seattle Center
16:04 47.0328 -122.6342 11° North 345 397 10,400 -1,406 Descending Seattle Center
16:05 47.1122 -122.6142 10° North 275 316 8,900 -1,241 Descending Seattle Center
16:06 47.1836 -122.5917 12° North 284 327 8,000 -466 Descending Seattle Center
16:07 47.2344 -122.5036 50° Northeast 272 313 8,000 -98 Level Seattle Center
16:08 47.2761 -122.4161 55° Northeast 265 305 7,800 -836 Descending Seattle Center
16:09 47.3189 -122.3297 54° Northeast 263 303 6,300 -1,525 Descending Seattle Center
16:10 47.3594 -122.2458 54° Northeast 254 292 4,700 -1,686 Descending Seattle Center
16:11 47.4114 -122.2253 15° North 203 234 2,900 -1,488 Descending Seattle Center
16:12 47.4569 -122.2433 345° North 154 177 1,700 -934 Descending Seattle Center
16:13 47.4811 -122.2633 331° Northwest 104 120 1,000 -639 Descending Seattle Center
16:14 47.5047 -122.2822 332° Northwest 98 113 400 -443 Descending Seattle Center
16:15 47.5264 -122.2981 334° Northwest 98 113 100 -295 Descending Seattle Center

Login

Don't have an account? Register now (free) for customized features, flight alerts, and more!